Overview Statistics Trail Chart Weather Telemetry Raw packets
 

This is the latest recevied weather packets stored in our database for station/object WX5KDM. If no packets are shown the sender has not sent any weather packets the latest 10 day(s).

<< 13 14 15 16 17 18 19 >>
Time Temp. Humidity Pressure Rain* Wind** Luminosity Snow
1788530588 31.11° C 69% 1017.1 hPa 0 mm - - -
1788530287 31.67° C 70% 1017.3 hPa 0 mm - - -
1788529982 31.11° C 72% 1017.2 hPa 0 mm - - -
1788529679 30.56° C 74% 1017.1 hPa 0 mm - - -
1788529378 30° C 76% 1017 hPa 0 mm - - -
1788529073 30.56° C 75% 1017.1 hPa 0 mm - - -
1788528769 30° C 75% 1017.2 hPa 0 mm - - -
1788528468 30° C 76% 1017 hPa 0 mm - - -
1788528164 29.44° C 77% 1016.8 hPa 0 mm - - -
1788527863 28.89° C 79% 1016.9 hPa 0 mm - - -
1788527559 29.44° C 79% 1017.1 hPa 0 mm - - -
1788527258 28.89° C 80% 1016.9 hPa 0 mm - - -
1788526957 27.78° C 83% 1016.8 hPa 0 mm - - -
1788526654 27.22° C 86% 1016.9 hPa 0 mm - - -
1788526363 26.67° C 87% 1016.9 hPa 0 mm - - -
1788526049 26.11° C 90% 1016.9 hPa 0 mm - - -
1788525746 26.11° C 89% 1016.7 hPa 0 mm - - -
1788525441 26.11° C 91% 1016.8 hPa 0 mm - - -
1788525136 25.56° C 94% 1016.6 hPa 0 mm - - -
1788524835 25° C 97% 1016.6 hPa 0 mm - - -
1788524530 24.44° C 97% 1016.7 hPa 0 mm - - -
1788524226 23.89° C 98% 1016.6 hPa 0 mm - - -
1788523921 23.33° C 98% 1016.5 hPa 0 mm - - -
1788523617 23.33° C 98% 1016.7 hPa 0 mm - - -
1788523313 22.78° C 99% 1016.6 hPa 0 mm - - -

* Rain latest hour (hover to see other rain measurements)
** Current wind speed in m/s (hover to see current wind gust speed)